W1LBM Weather Reports


Display with metric or nautical units.
time (UTC)temp
F
wind
direction
speed
MPH
gust
MPH
rain 1hr
in
rain 24hr
in
rain mn
in
humidity
%
barometer
mb
20260505014301 56 140 2.0 2.0 0.00 0.00 0.00 64 1014.8
20260505013757 56 178 4.0 4.0 0.00 0.00 0.00 63 1014.6
20260505013254 56 156 3.0 4.0 0.00 0.00 0.00 63 1014.5
20260505012753 56 160 2.0 3.0 0.00 0.00 0.00 63 1014.5
20260505012250 55 148 0.0 0.0 0.00 0.00 0.00 64 1014.3
20260505011745 56 142 0.0 0.0 0.00 0.00 0.00 62 1014.1
20260505011242 57 154 1.0 1.0 0.00 0.00 0.00 61 1014.0
20260505010738 57 209 0.0 1.0 0.00 0.00 0.00 60 1014.1
20260505010234 57 185 4.0 6.0 0.00 0.00 0.00 60 1014.0
20260505005731 57 211 2.0 3.0 0.00 0.00 0.00 59 1013.9
20260505005228 57 126 0.0 0.0 0.00 0.00 0.00 58 1013.6
20260505004725 57 154 1.0 1.0 0.00 0.00 0.00 57 1013.7
20260505004222 58 126 2.0 3.0 0.00 0.00 0.00 56 1013.6
20260505003719 58 181 1.0 2.0 0.00 0.00 0.00 56 1013.5
20260505003217 58 144 2.0 3.0 0.00 0.00 0.00 55 1013.4
20260505002713 58 161 2.0 2.0 0.00 0.00 0.00 55 1013.2
20260505002211 59 144 0.0 0.0 0.00 0.00 0.00 54 1013.1
20260505001708 59 148 0.0 1.0 0.00 0.00 0.00 53 1013.1
20260505001205 59 167 1.0 2.0 0.00 0.00 0.00 52 1012.9
20260505000702 59 175 2.0 2.0 0.00 0.00 0.00 51 1012.8
20260505000200 60 177 2.0 3.0 0.00 0.00 0.00 51 1013.0
20260504235656 60 115 1.0 2.0 0.00 0.00 0.00 51 1012.9
20260504235152 60 195 2.0 3.0 0.00 0.00 0.00 50 1012.6
20260504234650 60 187 1.0 1.0 0.00 0.00 0.00 51 1012.8
20260504234147 60 165 1.0 3.0 0.00 0.00 0.00 49 1012.4
20260504233643 61 164 2.0 2.0 0.00 0.00 0.00 49 1012.4
20260504233139 61 169 1.0 2.0 0.00 0.00 0.00 48 1012.4
20260504232637 62 172 3.0 4.0 0.00 0.00 0.00 48 1012.2
20260504232133 62 190 1.0 1.0 0.00 0.00 0.00 47 1012.5
20260504231630 62 155 2.0 2.0 0.00 0.00 0.00 46 1012.3
20260504231126 62 207 6.0 10.0 0.00 0.00 0.00 46 1012.0
20260504230622 63 201 3.0 6.0 0.00 0.00 0.00 45 1012.0
20260504230122 64 175 1.0 2.0 0.00 0.00 0.00 46 1012.1
20260504225619 64 154 2.0 2.0 0.00 0.00 0.00 46 1012.1
20260504225115 64 153 2.0 3.0 0.00 0.00 0.00 46 1012.0
20260504224612 64 183 5.0 8.0 0.00 0.00 0.00 46 1012.0
20260504224109 64 174 3.0 3.0 0.00 0.00 0.00 45 1011.7
20260504223606 64 167 4.0 8.0 0.00 0.00 0.00 46 1011.8
20260504223101 65 168 4.0 7.0 0.00 0.00 0.00 44 1011.8
20260504222559 65 186 3.0 3.0 0.00 0.00 0.00 44 1011.8
20260504222056 66 169 1.0 1.0 0.00 0.00 0.00 44 1011.6
20260504221553 66 200 6.0 11.0 0.00 0.00 0.00 43 1011.7
20260504221050 66 230 5.0 8.0 0.00 0.00 0.00 43 1011.6
20260504220546 66 241 4.0 4.0 0.00 0.00 0.00 42 1011.5
20260504220043 67 206 3.0 3.0 0.00 0.00 0.00 43 1011.5
20260504215540 66 200 3.0 9.0 0.00 0.00 0.00 43 1011.6
20260504215038 67 217 2.0 2.0 0.00 0.00 0.00 43 1011.6
20260504214533 67 209 3.0 3.0 0.00 0.00 0.00 42 1011.6
20260504214030 66 190 4.0 6.0 0.00 0.00 0.00 42 1011.5
20260504213526 67 170 5.0 7.0 0.00 0.00 0.00 42 1011.5
20260504213024 68 192 7.0 9.0 0.00 0.00 0.00 41 1011.5
20260504212519 67 201 6.0 9.0 0.00 0.00 0.00 41 1011.3
20260504212017 68 219 2.0 2.0 0.00 0.00 0.00 40 1011.3
20260504211514 67 183 4.0 6.0 0.00 0.00 0.00 41 1011.4
20260504211011 68 208 10.0 13.0 0.00 0.00 0.00 39 1011.4
20260504210508 68 165 0.0 0.0 0.00 0.00 0.00 39 1011.2
20260504210004 69 211 4.0 4.0 0.00 0.00 0.00 38 1011.2
20260504205502 68 149 1.0 2.0 0.00 0.00 0.00 40 1011.3
20260504205000 68 125 1.0 1.0 0.00 0.00 0.00 39 1011.2
20260504204458 68 178 3.0 6.0 0.00 0.00 0.00 39 1011.3
20260504203957 68 256 4.0 6.0 0.00 0.00 0.00 39 1011.1
20260504203454 68 163 3.0 4.0 0.00 0.00 0.00 38 1011.2
20260504202950 69 199 5.0 8.0 0.00 0.00 0.00 37 1011.0
20260504202447 70 208 3.0 4.0 0.00 0.00 0.00 35 1011.0
20260504201944 69 133 2.0 2.0 0.00 0.00 0.00 35 1011.3
20260504201441 69 126 2.0 4.0 0.00 0.00 0.00 35 1011.3
20260504200938 69 270 3.0 4.0 0.00 0.00 0.00 35 1011.3
20260504200435 69 218 5.0 7.0 0.00 0.00 0.00 34 1011.2
20260504195932 69 187 3.0 4.0 0.00 0.00 0.00 34 1011.1
20260504195427 69 199 3.0 3.0 0.00 0.00 0.00 34 1011.2
20260504194924 69 267 3.0 4.0 0.00 0.00 0.00 35 1011.4
20260504194420 69 194 5.0 6.0 0.00 0.00 0.00 34 1011.4
20260504193916 69 146 1.0 1.0 0.00 0.00 0.00 34 1011.3
20260504193414 70 203 6.0 9.0 0.00 0.00 0.00 33 1011.4
20260504192913 69 170 6.0 8.0 0.00 0.00 0.00 33 1011.4
20260504192409 69 200 3.0 3.0 0.00 0.00 0.00 32 1011.2
20260504191908 70 176 7.0 10.0 0.00 0.00 0.00 32 1011.2
20260504191406 69 214 4.0 6.0 0.00 0.00 0.00 32 1011.1
20260504190901 70 216 2.0 3.0 0.00 0.00 0.00 34 1011.3
20260504190357 69 205 8.0 10.0 0.00 0.00 0.00 33 1011.3
20260504185853 70 227 3.0 4.0 0.00 0.00 0.00 34 1011.3
20260504185351 70 172 3.0 4.0 0.00 0.00 0.00 33 1011.5
20260504184846 69 216 4.0 4.0 0.00 0.00 0.00 32 1011.5
20260504184343 70 182 4.0 6.0 0.00 0.00 0.00 32 1011.6
20260504183839 69 208 6.0 7.0 0.00 0.00 0.00 33 1011.4
20260504183336 70 207 4.0 6.0 0.00 0.00 0.00 33 1011.5
20260504182834 69 198 1.0 2.0 0.00 0.00 0.00 33 1011.8
20260504182331 69 187 2.0 3.0 0.00 0.00 0.00 33 1011.7
20260504181828 69 193 2.0 3.0 0.00 0.00 0.00 33 1011.9
20260504181325 69 214 1.0 2.0 0.00 0.00 0.00 32 1011.9
20260504180824 68 146 6.0 9.0 0.00 0.00 0.00 33 1011.8
20260504180322 69 181 6.0 7.0 0.00 0.00 0.00 34 1011.9
20260504175820 68 184 4.0 7.0 0.00 0.00 0.00 35 1011.8
20260504175317 68 269 4.0 6.0 0.00 0.00 0.00 34 1011.8
20260504174815 68 166 4.0 6.0 0.00 0.00 0.00 33 1012.0
20260504174312 68 229 3.0 4.0 0.00 0.00 0.00 33 1011.9
20260504173808 68 178 3.0 4.0 0.00 0.00 0.00 33 1012.1
20260504173305 68 254 5.0 6.0 0.00 0.00 0.00 33 1011.8
20260504172802 68 223 3.0 4.0 0.00 0.00 0.00 34 1011.7
20260504172259 68 165 4.0 7.0 0.00 0.00 0.00 33 1011.8
20260504171754 68 231 4.0 4.0 0.00 0.00 0.00 34 1012.0
20260504171252 68 183 1.0 2.0 0.00 0.00 0.00 35 1012.1
20260504170749 68 239 1.0 2.0 0.00 0.00 0.00 34 1012.0
20260504170246 68 176 6.0 8.0 0.00 0.00 0.00 33 1012.1
20260504160204 67 179 5.0 8.0 0.00 0.00 0.00 33 1012.8
20260504151132 64 231 4.0 6.0 0.00 0.00 0.00 37 1013.2
20260504150630 64 172 3.0 3.0 0.00 0.00 0.00 37 1013.5
20260504150126 64 261 3.0 6.0 0.00 0.00 0.00 37 1013.4
20260504141055 62 178 1.0 1.0 0.00 0.00 0.00 44 1014.0
20260504140552 62 212 4.0 4.0 0.00 0.00 0.00 40 1014.2
20260504130516 58 194 2.0 2.0 0.00 0.00 0.00 44 1014.3
20260504110403 47 139 0.0 0.0 0.00 0.00 0.00 59 1014.5
20260504100320 39 135 0.0 0.0 0.00 0.00 0.00 71 1014.4
20260504081714 42 132 0.0 0.0 0.00 0.00 0.00 65 1014.0
20260504081210 42 132 0.0 0.0 0.00 0.00 0.00 64 1014.1
20260504080707 43 132 0.0 0.0 0.00 0.00 0.00 64 1014.1
20260504080203 43 132 0.0 0.0 0.00 0.00 0.00 63 1014.0
20260504070131 42 140 0.0 0.0 0.00 0.00 0.00 70 1013.9
20260504050520 40 141 0.0 0.0 0.00 0.00 0.00 68 1014.0
20260504050017 40 135 0.0 0.0 0.00 0.00 0.00 66 1014.1
20260504045513 39 140 0.0 0.0 0.00 0.00 0.00 67 1014.0
20260504045009 39 141 0.0 0.0 0.00 0.00 0.00 67 1014.1
20260504044507 39 139 0.0 0.0 0.00 0.00 0.00 68 1014.1
20260504044003 38 138 0.0 0.0 0.00 0.00 0.00 68 1014.2
20260504043500 39 138 0.0 0.0 0.00 0.00 0.00 67 1014.0
20260504042958 39 138 0.0 0.0 0.00 0.00 0.00 67 1013.9
20260504042454 39 139 0.0 0.0 0.00 0.00 0.00 69 1013.8
20260504041951 38 144 0.0 0.0 0.00 0.00 0.00 71 1013.9
20260504041447 37 141 0.0 0.0 0.00 0.00 0.00 72 1014.0
20260504040943 37 135 0.0 0.0 0.00 0.00 0.00 71 1014.0
20260504040441 37 134 0.0 0.0 0.00 0.00 0.00 71 1013.8
20260504035937 37 134 0.0 0.0 0.00 0.00 0.00 72 1013.9
20260504035435 37 132 0.0 0.0 0.00 0.00 0.00 72 1013.9
20260504034931 37 138 0.0 0.0 0.00 0.00 0.00 73 1013.9
20260504034429 37 138 0.0 0.0 0.00 0.00 0.00 73 1013.8
20260504033926 37 139 0.0 0.0 0.00 0.00 0.00 73 1013.6
20260504033423 37 137 0.0 0.0 0.00 0.00 0.00 73 1013.7
20260504032920 37 137 0.0 0.0 0.00 0.00 0.00 72 1013.6
20260504032417 37 137 0.0 0.0 0.00 0.00 0.00 71 1013.6
20260504031914 37 137 0.0 0.0 0.00 0.00 0.00 71 1013.6
20260504031411 37 137 0.0 0.0 0.00 0.00 0.00 72 1013.6
20260504030907 37 143 0.0 0.0 0.00 0.00 0.00 71 1013.4
20260504030405 37 153 0.0 0.0 0.00 0.00 0.00 72 1013.5
20260504025900 36 138 0.0 0.0 0.00 0.00 0.00 73 1013.6
20260504025357 37 140 0.0 0.0 0.00 0.00 0.00 72 1013.4
20260504024854 37 143 0.0 0.0 0.00 0.00 0.00 72 1013.5
20260504024351 37 156 0.0 0.0 0.00 0.00 0.00 72 1013.4
20260504023848 37 141 0.0 0.0 0.00 0.00 0.00 71 1013.2
20260504023344 37 141 0.0 0.0 0.00 0.00 0.00 71 1013.3
20260504022840 38 142 0.0 0.0 0.00 0.00 0.00 71 1013.3
20260504022337 37 144 0.0 0.0 0.00 0.00 0.00 72 1013.4
20260504021833 38 140 0.0 0.0 0.00 0.00 0.00 71 1013.3
20260504021331 38 140 0.0 0.0 0.00 0.00 0.00 70 1013.3
20260504020828 38 140 0.0 0.0 0.00 0.00 0.00 69 1013.4
20260504020325 38 140 0.0 0.0 0.00 0.00 0.00 70 1013.3
20260504015820 38 140 0.0 0.0 0.00 0.00 0.00 67 1013.3
20260504015317 39 140 0.0 0.0 0.00 0.00 0.00 68 1013.3
20260504014813 39 140 0.0 0.0 0.00 0.00 0.00 67 1013.3